Wind_Speed
22 23 25 26 29 32 34 37 37 42 40 42 41 40 41 44 42 45 51 52 56 60 61 62 68 80 89 90 88 89 96 101 106 108 110 109 106 104 100 100 95 94 97
31 29 31 34 34 36 36 39 36 38 41 42 44 47 47 51 50 53 58 55 57 59 62 67 80 84 85 91 97 102 108 109 112 107 104 100 99 95 93 95 95 97 98
35 35 35 37 39 43 39 38 36 37 40 44 44 47 45 53 55 56 56 56 66 69 75 81 85 89 97 103 107 110 110 110 100 93 93 89 87 95 93 96 97 99 95
26 37 39 39 39 40 38 36 38 39 41 46 48 51 54 55 57 56 61 65 71 76 80 87 93 97 95 97 93 93 94 95 91 90 91 91 93 93 94 94 95 96 94
12 23 35 44 42 42 42 40 41 44 46 49 54 56 57 58 61 64 70 75 78 78 80 80 81 76 75 78 81 82 83 86 88 89 91 92 93 95 97 97 95 90 94
17 15 15 20 29 39 42 45 46 48 51 55 59 61 62 64 67 65 61 61 59 60 59 64 66 67 70 73 73 72 74 78 82 86 90 94 95 96 96 95 94 95 97
20 20 18 19 22 25 27 31 35 39 42 45 48 49 49 50 54 55 56 58 58 59 61 65 67 69 72 77 78 77 77 76 77 82 86 90 92 95 95 96 97 98 100
26 27 29 28 26 27 29 31 32 34 37 39 42 45 48 50 53 55 57 58 58 61 64 67 70 72 76 81 82 83 82 80 79 81 83 88 91 96 97 97 98 100 104
31 30 32 33 34 36 39 41 41 42 43 46 47 48 51 54 58 59 61 62 62 66 69 73 73 75 79 83 87 89 88 87 86 87 87 89 91 95 98 99 103 103 102
36 35 36 36 38 40 41 44 45 48 50 52 54 56 58 60 62 64 67 67 66 70 75 77 78 80 83 86 90 93 95 96 93 92 93 93 94 96 98 99 100 100 101
43 42 43 44 45 46 49 51 50 51 53 55 57 59 61 64 65 67 70 70 73 77 80 82 83 85 88 91 95 99 101 102 102 99 99 100 100 100 101 102 103 104 106
49 48 52 53 54 55 56 57 59 59 59 61 61 63 66 67 69 72 74 74 79 83 86 87 88 89 92 96 100 102 106 107 107 105 104 102 101 102 102 104 106 107 108
54 54 56 58 59 60 62 63 65 67 66 66 67 69 71 73 75 77 76 78 84 90 90 92 93 95 98 101 104 107 111 112 111 109 107 105 104 103 103 105 108 109 105
60 59 62 65 65 66 67 68 70 72 73 73 73 74 77 79 81 79 78 83 91 93 95 96 98 100 103 106 108 112 116 116 115 112 109 108 107 106 108 109 107 105 105
65 65 68 69 70 70 73 75 75 76 78 79 78 79 81 85 82 82 84 90 96 97 98 100 101 104 108 111 113 115 118 118 117 114 112 111 109 110 110 108 107 107 105
70 73 74 73 74 76 78 81 79 80 82 83 83 86 87 89 86 86 91 97 99 100 102 104 106 109 112 115 117 120 120 121 119 116 114 112 111 110 110 111 107 102 98
78 81 80 78 80 83 84 84 85 86 88 87 88 90 93 94 91 93 98 103 105 108 109 111 114 116 118 120 123 122 122 121 118 115 113 112 111 111 107 104 102 98 94
85 84 82 82 85 85 88 89 91 92 93 93 94 94 95 96 98 103 107 110 113 115 116 119 121 121 122 125 123 123 120 117 115 115 113 112 109 105 103 99 95 91 87
85 85 85 88 88 94 92 94 95 97 96 95 96 97 100 104 108 110 113 115 118 121 123 123 121 124 126 124 123 119 117 117 115 112 110 106 101 97 93 89 87 84 80
88 90 93 95 98 99 99 101 101 101 99 99 101 104 107 110 113 114 118 120 122 123 124 123 127 127 125 122 118 117 115 114 110 105 101 96 93 89 84 80 79 76 73
95 98 101 102 104 105 105 106 103 101 102 105 110 110 114 118 118 119 119 121 122 122 124 126 125 122 118 116 114 112 109 104 100 96 93 90 86 82 77 74 72 68 65
101 105 108 107 107 108 107 106 104 106 109 111 113 117 122 124 123 121 121 121 122 124 122 120 117 115 114 112 108 103 99 96 92 88 85 83 79 74 71 68 65 61 59
107 107 107 109 108 107 108 107 109 111 113 117 121 125 126 123 121 121 121 122 120 117 114 112 112 111 107 102 98 94 91 89 86 81 79 76 71 67 64 63 59 55 53
106 108 109 109 109 109 110 111 114 118 122 125 128 127 123 121 121 121 119 115 113 111 111 109 105 100 97 94 91 87 83 80 77 75 72 68 63 61 59 56 53 52 48
109 109 110 111 111 113 116 119 123 125 126 129 125 121 120 121 118 114 112 110 109 106 103 98 93 91 89 86 83 80 76 73 70 68 64 61 59 56 53 51 49 46 44
110 112 114 115 117 120 123 125 126 127 123 120 119 120 116 113 111 108 107 104 100 96 93 90 88 85 82 79 76 73 69 67 64 61 59 56 53 52 48 45 43 41 39
Wind_Direction
250 250 247 242 238 237 239 245 251 257 256 263 264 259 258 259 272 287 298 294 293 298 302 303 299 299 301 303 301 298 296 297 298 299 300 300 299 300 299 300 300 303 303
246 247 247 246 247 248 247 251 253 256 256 264 270 272 275 280 283 290 294 297 294 297 291 295 295 296 293 292 292 295 295 296 296 297 297 298 298 297 298 299 301 301 303
244 248 248 247 244 251 253 253 257 261 266 265 268 271 276 287 292 295 294 285 293 293 293 293 293 292 290 292 293 294 295 296 295 296 297 296 296 297 299 300 300 301 301
257 249 254 257 260 261 251 251 258 262 266 272 277 285 288 292 289 281 282 283 283 285 286 287 289 291 295 294 296 296 293 293 293 293 293 293 294 296 298 297 299 299 299
287 262 256 260 268 270 270 270 272 274 277 281 284 286 286 285 283 283 281 281 283 284 288 290 293 296 303 302 301 300 297 295 292 292 293 294 294 295 295 297 296 294 296
316 310 290 273 264 262 267 270 272 273 272 275 278 280 280 278 280 283 285 289 291 290 292 299 301 305 310 312 312 311 309 301 298 295 292 293 294 295 295 293 293 295 297
298 294 294 291 288 281 280 280 283 284 285 284 285 283 285 287 285 286 290 292 294 299 300 304 307 312 316 314 315 315 313 311 306 298 294 293 293 293 293 293 295 296 296
291 293 293 291 288 286 286 286 285 285 285 286 285 285 286 288 289 290 291 294 299 302 305 307 309 312 315 318 317 317 315 312 310 307 303 297 295 293 294 293 293 293 294
286 290 291 291 291 290 290 289 288 286 285 285 285 288 289 291 292 292 296 299 305 308 308 308 310 312 313 314 318 318 317 315 312 311 308 304 300 297 294 293 292 294 294
287 292 291 290 291 293 294 291 289 288 287 287 288 289 291 293 297 298 296 300 307 310 310 310 311 311 311 313 316 318 317 317 315 311 309 306 304 301 299 298 297 298 300
284 288 293 292 294 293 295 296 296 293 291 292 291 294 295 295 296 299 299 304 308 310 311 311 312 310 311 313 314 316 318 317 315 313 311 309 308 305 303 302 303 303 303
281 286 291 294 298 299 298 297 298 298 297 297 296 296 297 297 297 298 301 305 308 308 310 310 310 310 311 312 313 314 316 316 315 313 311 309 307 305 304 304 303 304 304
277 279 285 290 294 297 299 298 297 297 298 297 296 296 298 299 299 299 302 305 306 307 308 309 309 311 311 310 312 313 314 314 314 311 309 307 306 305 305 305 304 303 306
275 278 283 288 291 295 296 297 297 296 296 296 297 298 299 300 300 300 303 303 305 306 307 308 309 310 310 310 311 312 312 312 311 309 308 307 306 305 305 304 305 307 308
276 279 282 285 290 292 295 296 295 295 296 296 296 298 300 302 302 304 304 304 305 306 306 307 308 309 308 309 310 310 309 309 309 308 308 307 305 306 305 306 307 307 307
275 277 282 285 286 289 292 295 295 295 296 296 296 297 300 302 305 305 304 304 305 305 307 308 307 307 308 308 308 308 308 307 307 307 307 306 306 306 307 307 306 305 306
273 277 282 283 284 288 291 293 295 295 296 296 296 298 301 303 304 304 305 306 307 307 307 307 307 307 307 307 308 307 306 307 306 306 306 307 306 306 305 305 305 304 303
274 278 281 282 286 288 291 293 294 295 295 295 297 300 302 303 304 304 304 304 306 307 306 306 306 305 306 307 305 305 306 306 306 306 306 305 305 305 304 303 303 303 302
275 277 279 283 284 286 289 291 291 292 293 296 299 300 302 303 303 303 305 304 304 305 305 304 304 305 305 304 305 306 306 305 305 305 305 304 303 302 302 301 301 300 299
274 277 278 280 284 287 288 289 289 292 293 296 299 300 301 303 302 302 302 303 303 303 303 304 305 305 304 305 305 305 304 304 304 302 301 300 301 300 301 300 299 298 298
274 276 278 282 284 286 286 289 291 293 297 298 299 301 302 303 302 301 302 302 303 303 303 304 302 303 305 304 303 303 303 302 302 303 303 303 301 300 300 300 298 297 296
275 278 280 282 283 285 288 291 294 296 296 297 299 300 301 301 301 301 302 302 302 303 301 302 304 304 303 303 303 303 302 302 301 301 302 301 300 301 301 299 297 297 296
276 279 280 282 285 288 291 292 294 295 297 297 298 299 301 300 301 302 302 301 301 301 303 303 303 303 303 302 302 302 303 303 303 302 301 300 301 301 299 297 297 298 297
278 280 283 286 288 289 291 292 294 294 296 297 299 300 300 301 300 300 300 301 303 303 302 302 303 303 303 303 303 303 303 303 302 301 301 301 301 299 298 298 299 297 296
281 283 285 287 288 290 291 292 294 295 296 298 299 300 300 299 300 301 302 302 302 302 303 303 304 304 303 304 304 304 303 302 302 302 302 302 301 300 299 300 298 296 294
282 283 285 287 288 289 292 293 294 296 297 299 299 298 299 300 301 302 302 302 303 304 304 305 305 305 305 305 304 304 304 304 303 303 303 302 300 299 300 298 296 294 293
Height
10544 10545 10545 10545 10546 10546 10546 10548 10551 10552 10547 10545 10548 10547 10543 10540 10540 10537 10534 10531 10527 10525 10520 10516 10513 10507 10501 10495 10488 10482 10475 10469 10464 10454 10445 10433 10423 10412 10401 10395 10387 10379 10368
10536 10537 10538 10537 10538 10538 10539 10540 10542 10540 10539 10540 10538 10535 10532 10530 10530 10528 10525 10522 10519 10516 10513 10511 10506 10498 10491 10485 10477 10467 10459 10451 10443 10433 10424 10412 10402 10391 10383 10374 10365 10357 10348
10530 10529 10528 10528 10529 10527 10529 10531 10531 10531 10531 10530 10530 10528 10527 10524 10522 10519 10518 10516 10512 10508 10504 10497 10492 10484 10476 10468 10456 10446 10435 10427 10420 10412 10402 10393 10382 10371 10363 10355 10347 10337 10325
10523 10522 10520 10519 10519 10519 10522 10524 10526 10525 10523 10521 10520 10519 10517 10514 10512 10510 10508 10505 10501 10497 10492 10484 10476 10467 10456 10444 10433 10423 10414 10404 10397 10388 10381 10373 10364 10352 10345 10337 10329 10317 10309
10519 10517 10516 10514 10514 10514 10515 10516 10516 10516 10515 10513 10510 10508 10506 10503 10500 10499 10494 10489 10485 10481 10474 10465 10457 10448 10438 10428 10416 10404 10392 10382 10374 10366 10357 10350 10341 10331 10323 10315 10310 10303 10292
10515 10513 10512 10511 10510 10509 10509 10510 10508 10506 10505 10503 10499 10495 10493 10491 10488 10483 10479 10474 10469 10463 10456 10448 10441 10431 10420 10408 10397 10386 10375 10364 10355 10345 10335 10326 10316 10308 10301 10292 10285 10278 10274
10511 10509 10507 10505 10505 10504 10502 10501 10499 10496 10493 10491 10488 10485 10482 10478 10472 10468 10464 10459 10453 10447 10440 10433 10424 10414 10403 10391 10380 10368 10357 10346 10336 10325 10314 10303 10295 10283 10277 10269 10259 10252 10242
10503 10501 10500 10498 10497 10496 10494 10492 10491 10489 10486 10482 10479 10475 10470 10466 10460 10455 10449 10443 10436 10429 10421 10414 10405 10396 10384 10373 10362 10351 10340 10329 10318 10306 10294 10281 10270 10259 10250 10244 10235 10229 10216
10495 10493 10491 10490 10488 10487 10485 10483 10480 10477 10474 10471 10467 10462 10456 10452 10445 10439 10432 10424 10417 10410 10401 10393 10384 10376 10366 10357 10344 10332 10319 10307 10295 10283 10271 10259 10247 10234 10223 10216 10205 10199 10195
10484 10483 10483 10481 10477 10475 10474 10471 10468 10464 10460 10456 10450 10445 10440 10434 10427 10421 10414 10407 10399 10391 10382 10372 10363 10354 10345 10334 10323 10311 10297 10283 10272 10259 10246 10234 10223 10209 10196 10186 10177 10169 10158
10472 10471 10469 10468 10466 10463 10460 10456 10453 10449 10445 10440 10434 10428 10422 10416 10409 10402 10394 10385 10377 10369 10360 10351 10342 10333 10322 10311 10298 10286 10273 10260 10247 10235 10221 10206 10193 10179 10165 10152 10142 10133 10125
10458 10456 10454 10452 10449 10446 10443 10439 10435 10430 10425 10420 10414 10408 10402 10395 10389 10381 10372 10364 10355 10348 10338 10329 10320 10310 10298 10286 10274 10261 10249 10236 10223 10209 10196 10183 10171 10157 10142 10129 10115 10103 10092
10445 10443 10440 10437 10434 10431 10427 10423 10418 10413 10407 10402 10396 10389 10383 10376 10368 10360 10351 10343 10335 10325 10316 10306 10295 10284 10272 10260 10248 10235 10223 10209 10197 10185 10173 10160 10148 10135 10121 10107 10093 10080 10067
10429 10428 10425 10421 10417 10413 10409 10405 10400 10395 10389 10383 10376 10370 10363 10356 10348 10338 10329 10321 10312 10302 10291 10280 10269 10258 10246 10234 10221 10208 10195 10182 10171 10157 10145 10132 10120 10107 10094 10080 10067 10051 10041
10414 10411 10407 10404 10400 10395 10391 10386 10381 10375 10369 10363 10356 10350 10343 10335 10325 10315 10306 10297 10288 10278 10266 10256 10244 10232 10220 10207 10195 10182 10169 10154 10140 10127 10115 10104 10091 10078 10063 10047 10033 10022 10010
10395 10392 10389 10386 10382 10377 10372 10366 10360 10354 10348 10341 10334 10327 10320 10312 10301 10291 10283 10274 10264 10253 10241 10230 10218 10206 10194 10181 10167 10152 10137 10123 10109 10096 10083 10071 10059 10045 10031 10015 10004 9992 9980
10376 10373 10370 10367 10362 10355 10351 10345 10337 10331 10325 10319 10311 10302 10294 10286 10276 10267 10258 10248 10238 10227 10215 10202 10190 10177 10164 10149 10136 10121 10106 10091 10078 10065 10051 10037 10024 10013 10000 9985 9973 9963 9952
10355 10352 10350 10346 10340 10334 10326 10320 10314 10307 10300 10293 10287 10278 10269 10260 10251 10242 10232 10221 10209 10198 10186 10173 10160 10146 10131 10118 10103 10089 10075 10060 10044 10031 10018 10005 9991 9981 9969 9958 9947 9938 9928
10333 10331 10327 10323 10318 10313 10307 10300 10293 10286 10278 10270 10262 10253 10242 10233 10223 10213 10202 10191 10179 10167 10155 10142 10127 10111 10098 10083 10068 10053 10040 10024 10011 9998 9985 9973 9961 9951 9940 9931 9921 9911 9904
10313 10309 10305 10300 10296 10290 10284 10278 10270 10262 10255 10246 10236 10228 10220 10209 10197 10186 10175 10162 10149 10135 10121 10105 10090 10076 10062 10049 10035 10021 10007 9992 9979 9967 9956 9944 9932 9922 9914 9905 9895 9887 9880
10291 10287 10282 10278 10271 10264 10258 10251 10244 10236 10226 10217 10208 10199 10189 10179 10169 10158 10146 10132 10118 10103 10087 10072 10057 10043 10029 10016 10003 9989 9975 9961 9949 9938 9926 9915 9904 9895 9888 9881 9872 9865 9859
10268 10263 10257 10251 10245 10238 10231 10224 10216 10208 10200 10191 10181 10171 10161 10149 10137 10125 10112 10098 10082 10068 10054 10040 10026 10011 9996 9982 9969 9957 9944 9930 9917 9907 9897 9887 9879 9872 9865 9856 9849 9845 9839
10243 10237 10231 10225 10219 10211 10204 10196 10189 10180 10171 10162 10152 10141 10131 10117 10104 10090 10076 10062 10048 10034 10020 10007 9994 9979 9964 9950 9938 9929 9917 9904 9892 9881 9871 9862 9857 9851 9842 9834 9830 9825 9821
10217 10211 10206 10199 10193 10185 10178 10170 10161 10153 10143 10133 10121 10110 10097 10084 10070 10056 10042 10028 10015 10001 9988 9975 9962 9949 9935 9922 9909 9899 9890 9880 9869 9859 9850 9842 9836 9829 9821 9816 9812 9807 9803
10192 10186 10180 10172 10165 10158 10150 10141 10132 10123 10112 10102 10089 10077 10063 10049 10036 10023 10011 9998 9984 9971 9957 9944 9933 9921 9908 9896 9885 9874 9864 9856 9847 9838 9830 9823 9816 9810 9804 9800 9795 9791 9788
10167 10160 10153 10146 10138 10130 10122 10112 10101 10092 10081 10069 10056 10043 10030 10017 10005 9993 9980 9966 9954 9940 9928 9917 9905 9894 9883 9872 9863 9852 9843 9835 9826 9819 9812 9805 9799 9793 9789 9785 9780 9776 9773